Flag for Poland Weather past 2 weeks in Jastrzębie Zdrój, Poland

Now
60 °F

Rain. Low clouds.


Feels Like: N/A
Forecast: 57 / 74 °F
Wind: N/A

Location: Ostrava / Mosnov

Current Time: Sep 2, 2014 at 3:35:02 AM

Latest Report: Sep 2, 2014 at 2:00 AM


Visibility: 5 mi

Pressure: 29.94 "Hg

Humidity: 99%

Dew point: 59 °F

Location of Jastrzębie ZdrójLocation

Historic Weather in Jastrzębie Zdrój — Graph

°F

Jastrzębie Zdrój temperature yesterday

Maximum temperature yesterday: 61 °F (at 4:00 PM)
Minimum temperature yesterday: 55 °F (at 2:00 AM)
Average temperature yesterday: 59 °F

Past Weeks' High & Low Weather Summary

 TemperatureHumidityPressure
High74 °F (Aug 18, 3:00 PM)99% (Aug 24, 7:00 AM)30.14 "Hg (Aug 24, 7:00 AM)
Low43 °F (Aug 25, 6:00 AM)44% (Aug 18, 12:00 PM)29.72 "Hg (Aug 26, 6:00 PM)
Average59 °F81%29.98 "Hg
* Reported Aug 18 2:00 AM — Sep 2 2:00 AM, Jastrzębie Zdrój, Weather by CustomWeather, © 2014

Note: Actual official high and low records may vary slightly from our data, if they occured in-between our weather recording intervals... More about our weather records

Advertising

Jastrzębie Zdrój weather history for previous 24 hours

 ConditionsComfort  
Time TempWeatherWind HumidityBarometerVisibility
2:00 AM
Sep 2
60 °FRain. Low clouds.N/A99%29.94 "Hg5 mi
1:00 AM60 °FRain. Low clouds.2 mph99%29.94 "Hg6 mi
12:00 AM60 °FLight rain. Low clouds.3 mph98%29.95 "Hg9 mi
11:00 PM
Sep 1
60 °FLight rain. Low clouds.2 mph99%29.96 "Hg7 mi
10:00 PM60 °FLight rain. Low clouds.N/A99%29.96 "Hg6 mi
9:00 PM60 °FRain. Low clouds.2 mph99%29.96 "Hg3 mi
8:00 PM60 °FLight rain. Low clouds.2 mph98%29.96 "Hg3 mi
7:00 PM60 °FRain. Low clouds.3 mph98%29.95 "Hg2 mi
6:00 PM60 °FLight rain. Low clouds.3 mph97%29.95 "Hg2 mi
5:00 PM60 °FRain. Low clouds.3 mph98%29.94 "Hg2 mi
4:00 PM61 °FLight rain. Low clouds.5 mph98%29.94 "Hg3 mi
3:00 PM60 °FLight rain. Low clouds.5 mph97%29.94 "Hg3 mi
2:00 PM60 °FLight rain. Low clouds.5 mph97%29.93 "Hg3 mi
1:00 PM59 °FLight rain. Low clouds.6 mph97%29.95 "Hg5 mi
12:00 PM59 °FLow clouds.5 mph97%29.94 "Hg4 mi
11:00 AM59 °FDrizzle. Low clouds.5 mph98%29.93 "Hg3 mi
10:00 AM58 °FFog.6 mph97%29.93 "Hg4 mi
9:00 AM58 °FFog.5 mph97%29.90 "Hg4 mi
8:00 AM58 °FFog.6 mph98%29.90 "Hg4 mi
7:00 AM58 °FFog.5 mph98%29.90 "Hg4 mi
6:00 AM57 °FFog.N/A97%29.89 "Hg6 mi
5:00 AM57 °FOvercast.1 mph98%29.89 "Hg12 mi
4:14 AM56 °FOvercast.N/A98%29.88 "Hg12 mi
3:00 AM55 °FOvercast.1 mph98%29.88 "Hg16 mi
Weather by CustomWeather, © 2014

See weather overviewHow to use our weather pages